Seattle Boeing, WA
on Sunday, January 6, 2013

Sunday
Previous Day Next Day
Daily Summary
 ActualAverage (KSEA)Record (KSEA)
Temperature
Mean Temperature °F 41°F  
Max Temperature 46°F 46°F 57°F (2003)
Min Temperature 39°F 37°F 14°F (1982)
Degree Days
Heating Degree Days 22 24  
Month to date heating degree days 144  
Since 1 July heating degree days 2082  
Cooling Degree Days 0 0  
Month to date cooling degree days 0  
Year to date cooling degree days 0  
Moisture
Dew Point 38°F   
Average Humidity 81    
Maximum Humidity 89    
Minimum Humidity 68    
Precipitation
Precipitation 0.03 in 0.19 in 1.22 in (1956)
Month to date precipitation 1.11  
Year to date precipitation 1.11  
Snow
Snow 0.00 in in 2.00 in (1965)
Month to date snowfall  
Since 1 July snowfall  
Snow Depth in   
Wind
Wind Speed 7 mph   
Max Wind Speed 10 mph   
Max Gust Speed mph   
Visibility 10 miles   
Events Rain   

Key: T is trace of precipitation, MM is missing value
Source: NWS Daily Summary
Time(PST)TemperatureDew PointHumidity Pressure Visibility Wind DirectionWind SpeedGust SpeedPrecipitationEvents Conditions
12:09 AM 42.8°F 39.2°F 87% 30.16 in 7.0 miles SE 8.1 mph - N/A   Overcast
12:53 AM 42.1°F 39.0°F 89% 30.15 in 9.0 miles SE 6.9 mph - N/A   Overcast
1:53 AM 42.1°F 37.9°F 85% 30.17 in 10.0 miles ESE 8.1 mph - N/A   Overcast
2:26 AM 41.0°F 37.4°F 87% 30.18 in 10.0 miles SSE 6.9 mph - N/A   Overcast
2:53 AM 39.9°F 37.0°F 89% 30.18 in 9.0 miles SSE 8.1 mph - N/A   Mostly Cloudy
3:06 AM 41.0°F 37.4°F 87% 30.17 in 10.0 miles SSE 10.4 mph - N/A   Scattered Clouds
3:53 AM 41.0°F 37.0°F 86% 30.16 in 10.0 miles SE 8.1 mph - N/A   Mostly Cloudy
4:53 AM 41.0°F 37.0°F 86% 30.15 in 10.0 miles ESE 6.9 mph - N/A   Mostly Cloudy
5:53 AM 42.1°F 37.0°F 82% 30.15 in 10.0 miles South 6.9 mph - N/A   Scattered Clouds
6:53 AM 43.0°F 37.0°F 80% 30.16 in 10.0 miles South 5.8 mph - 0.00 in Rain Light Rain
7:53 AM 43.0°F 37.0°F 80% 30.17 in 10.0 miles South 6.9 mph - 0.00 in   Mostly Cloudy
8:53 AM 43.0°F 37.9°F 82% 30.17 in 10.0 miles South 8.1 mph - N/A   Overcast
9:53 AM 44.1°F 37.9°F 79% 30.19 in 10.0 miles ESE 9.2 mph - N/A   Overcast
10:53 AM 45.0°F 39.0°F 80% 30.19 in 10.0 miles SE 6.9 mph - N/A   Overcast
11:53 AM 46.0°F 39.0°F 76% 30.16 in 10.0 miles South 6.9 mph - N/A   Overcast
12:53 PM 46.0°F 39.9°F 79% 30.14 in 10.0 miles SSE 6.9 mph - 0.01 in Rain Light Rain
1:53 PM 46.0°F 39.9°F 79% 30.13 in 10.0 miles SSE 5.8 mph - 0.00 in Rain Light Rain
2:53 PM 46.9°F 39.9°F 77% 30.12 in 10.0 miles SSE 4.6 mph - 0.00 in   Overcast
3:53 PM 46.0°F 39.9°F 79% 30.11 in 10.0 miles SSE 5.8 mph - N/A   Overcast
4:53 PM 46.0°F 39.0°F 76% 30.09 in 10.0 miles SSE 4.6 mph - N/A   Overcast
5:53 PM 46.0°F 39.0°F 76% 30.08 in 10.0 miles SE 4.6 mph - N/A   Overcast
6:53 PM 46.9°F 37.0°F 68% 30.08 in 10.0 miles South 9.2 mph - 0.00 in   Overcast
7:53 PM 46.0°F 37.0°F 71% 30.07 in 10.0 miles SSE 8.1 mph - 0.00 in Rain Light Rain
8:53 PM 44.1°F 37.9°F 79% 30.06 in 10.0 miles SE 8.1 mph - 0.01 in Rain Light Rain
9:53 PM 44.1°F 39.0°F 82% 30.03 in 10.0 miles SE 6.9 mph - 0.00 in Rain Light Rain
10:08 PM 42.8°F 37.4°F 81% 30.02 in 10.0 miles SE 10.4 mph - 0.00 in   Overcast
10:43 PM 42.8°F 37.4°F 81% 30.02 in 8.0 miles SE 5.8 mph - 0.00 in   Overcast
10:53 PM 42.1°F 37.9°F 85% 30.01 in 7.0 miles SE 4.6 mph - 0.00 in   Overcast
11:53 PM 42.1°F 39.0°F 89% 30.00 in 8.0 miles Calm Calm - 0.01 in Rain Light Rain
Moon Phase
Jan. 06 Jan. 11 Jan. 18 Jan. 26 Feb. 03
Sunrise:07:56 AM (PST) Moon Rise:02:07 AM (PST)1/6
Sunset:04:34 PM (PST) Moon Set:12:12 PM (PST)1/6

Copyright © 2014 The Weather Underground, Inc.